QPF
0.00 0.00 0.00 0.00 0.00 0.00 0.00 0.00 0.00 0.00 0.00 0.00 0.00 0.00 0.00 0.00 0.00 0.00 0.00 0.00 0.00 0.00 0.00 0.00 0.00 0.01 0.01 0.01 0.01 0.00 0.00 0.00 0.00 0.00 0.01 0.00 0.00 0.00 0.00 0.00 0.00 0.00 0.00
0.00 0.00 0.00 0.00 0.00 0.00 0.00 0.00 0.00 0.00 0.00 0.00 0.00 0.00 0.00 0.00 0.00 0.00 0.00 0.00 0.00 0.00 0.00 0.00 0.00 0.01 0.01 0.01 0.01 0.01 0.01 0.01 0.01 0.01 0.01 0.01 0.00 0.00 0.00 0.00 0.00 0.00 0.00
0.00 0.00 0.00 0.00 0.00 0.00 0.00 0.00 0.00 0.00 0.00 0.00 0.00 0.00 0.00 0.00 0.01 0.01 0.01 0.01 0.02 0.02 0.01 0.01 0.01 0.01 0.01 0.01 0.01 0.01 0.01 0.02 0.02 0.02 0.02 0.02 0.01 0.01 0.00 0.00 0.00 0.00 0.00
0.00 0.00 0.00 0.00 0.00 0.00 0.00 0.01 0.01 0.01 0.01 0.01 0.01 0.02 0.02 0.03 0.03 0.03 0.03 0.03 0.03 0.02 0.02 0.01 0.01 0.01 0.01 0.00 0.01 0.02 0.02 0.03 0.04 0.04 0.04 0.03 0.02 0.02 0.01 0.01 0.00 0.00 0.00
0.00 0.00 0.00 0.00 0.00 0.00 0.01 0.01 0.02 0.02 0.02 0.02 0.02 0.03 0.02 0.02 0.03 0.03 0.03 0.03 0.02 0.02 0.01 0.01 0.00 0.00 0.00 0.00 0.01 0.01 0.02 0.03 0.04 0.04 0.04 0.03 0.04 0.03 0.03 0.02 0.01 0.01 0.00
0.00 0.01 0.01 0.01 0.01 0.01 0.01 0.01 0.01 0.01 0.01 0.00 0.00 0.01 0.01 0.01 0.01 0.01 0.01 0.01 0.01 0.01 0.01 0.00 0.00 0.00 0.00 0.00 0.00 0.00 0.01 0.02 0.04 0.05 0.04 0.05 0.07 0.06 0.05 0.04 0.02 0.02 0.01
0.01 0.01 0.01 0.01 0.01 0.01 0.01 0.01 0.01 0.00 0.00 0.00 0.00 0.00 0.00 0.00 0.00 0.00 0.00 0.00 0.00 0.00 0.00 0.00 0.00 0.00 0.00 0.00 0.00 0.00 0.00 0.01 0.02 0.04 0.06 0.08 0.09 0.10 0.10 0.08 0.06 0.04 0.03
0.01 0.01 0.01 0.01 0.00 0.00 0.00 0.00 0.00 0.00 0.00 0.00 0.00 0.00 0.00 0.00 0.00 0.00 0.00 0.00 0.00 0.00 0.00 0.00 0.00 0.00 0.00 0.00 0.00 0.00 0.00 0.00 0.01 0.02 0.04 0.07 0.09 0.11 0.13 0.12 0.11 0.09 0.06
0.00 0.00 0.00 0.00 0.00 0.00 0.00 0.00 0.00 0.00 0.00 0.00 0.00 0.00 0.00 0.00 0.00 0.00 0.00 0.00 0.00 0.00 0.00 0.00 0.00 0.00 0.00 0.00 0.00 0.00 0.00 0.00 0.00 0.01 0.02 0.04 0.06 0.08 0.10 0.11 0.11 0.10 0.08
0.00 0.00 0.00 0.00 0.00 0.00 0.00 0.00 0.00 0.00 0.00 0.00 0.00 0.00 0.01 0.01 0.01 0.01 0.00 0.00 0.00 0.00 0.00 0.00 0.00 0.00 0.00 0.00 0.00 0.00 0.00 0.00 0.00 0.00 0.01 0.01 0.03 0.04 0.07 0.09 0.09 0.09 0.08
0.00 0.00 0.00 0.00 0.00 0.00 0.00 0.00 0.00 0.00 0.00 0.00 0.00 0.00 0.00 0.00 0.00 0.01 0.01 0.00 0.00 0.00 0.00 0.00 0.00 0.00 0.00 0.00 0.00 0.00 0.00 0.01 0.01 0.01 0.01 0.01 0.01 0.02 0.03 0.06 0.08 0.10 0.11
0.00 0.00 0.00 0.00 0.00 0.00 0.00 0.00 0.00 0.00 0.00 0.00 0.00 0.00 0.00 0.00 0.00 0.00 0.01 0.00 0.00 0.00 0.00 0.00 0.00 0.00 0.00 0.00 0.00 0.01 0.02 0.02 0.02 0.01 0.01 0.00 0.00 0.01 0.01 0.02 0.05 0.08 0.11
0.00 0.00 0.00 0.00 0.00 0.00 0.00 0.00 0.00 0.00 0.00 0.00 0.00 0.00 0.00 0.00 0.00 0.00 0.01 0.01 0.00 0.00 0.00 0.00 0.00 0.00 0.00 0.00 0.00 0.01 0.01 0.01 0.01 0.01 0.01 0.00 0.00 0.00 0.01 0.01 0.02 0.04 0.07
0.00 0.00 0.00 0.00 0.00 0.00 0.00 0.00 0.00 0.00 0.00 0.00 0.00 0.00 0.00 0.00 0.00 0.00 0.00 0.01 0.01 0.00 0.00 0.00 0.00 0.00 0.00 0.00 0.00 0.00 0.00 0.00 0.01 0.01 0.01 0.01 0.01 0.01 0.01 0.01 0.01 0.02 0.03
0.00 0.00 0.00 0.00 0.00 0.00 0.00 0.00 0.00 0.00 0.00 0.00 0.00 0.00 0.00 0.00 0.00 0.00 0.00 0.01 0.02 0.02 0.01 0.00 0.00 0.00 0.00 0.00 0.00 0.00 0.00 0.00 0.01 0.01 0.01 0.01 0.01 0.01 0.01 0.01 0.01 0.01 0.01
0.00 0.00 0.00 0.00 0.00 0.00 0.00 0.00 0.00 0.00 0.00 0.00 0.00 0.00 0.00 0.00 0.00 0.00 0.00 0.00 0.01 0.03 0.02 0.01 0.00 0.00 0.00 0.00 0.00 0.00 0.00 0.01 0.01 0.02 0.02 0.02 0.01 0.01 0.01 0.01 0.01 0.01 0.01
0.00 0.00 0.00 0.00 0.00 0.00 0.00 0.00 0.00 0.00 0.00 0.00 0.00 0.00 0.00 0.00 0.00 0.00 0.00 0.00 0.01 0.02 0.04 0.02 0.01 0.00 0.00 0.00 0.00 0.00 0.00 0.00 0.01 0.03 0.04 0.04 0.03 0.01 0.01 0.01 0.01 0.01 0.01
0.00 0.00 0.00 0.00 0.00 0.00 0.00 0.00 0.00 0.00 0.00 0.00 0.00 0.00 0.00 0.00 0.00 0.00 0.00 0.00 0.01 0.02 0.04 0.03 0.01 0.01 0.00 0.00 0.00 0.00 0.00 0.01 0.01 0.04 0.03 0.03 0.02 0.02 0.01 0.01 0.00 0.00 0.00
0.00 0.00 0.00 0.00 0.00 0.00 0.00 0.00 0.00 0.00 0.00 0.00 0.00 0.00 0.00 0.00 0.00 0.00 0.01 0.01 0.02 0.02 0.03 0.03 0.01 0.00 0.00 0.00 0.01 0.01 0.01 0.01 0.02 0.02 0.02 0.02 0.01 0.01 0.00 0.00 0.00 0.00 0.00
0.00 0.00 0.00 0.00 0.00 0.00 0.00 0.00 0.00 0.00 0.00 0.00 0.00 0.00 0.00 0.00 0.00 0.01 0.01 0.02 0.02 0.02 0.02 0.01 0.01 0.01 0.00 0.00 0.01 0.02 0.03 0.02 0.02 0.02 0.02 0.01 0.01 0.00 0.00 0.01 0.02 0.01 0.01
0.00 0.00 0.00 0.00 0.00 0.00 0.00 0.00 0.00 0.00 0.00 0.00 0.00 0.00 0.00 0.00 0.01 0.02 0.02 0.02 0.02 0.02 0.02 0.02 0.02 0.01 0.01 0.02 0.03 0.03 0.03 0.03 0.02 0.01 0.01 0.00 0.00 0.01 0.04 0.05 0.05 0.04 0.03
0.00 0.00 0.00 0.00 0.00 0.00 0.00 0.00 0.00 0.00 0.00 0.00 0.00 0.00 0.00 0.00 0.00 0.00 0.01 0.01 0.02 0.02 0.03 0.05 0.05 0.03 0.02 0.03 0.04 0.04 0.04 0.03 0.02 0.01 0.01 0.01 0.01 0.05 0.10 0.14 0.18 0.14 0.07
0.00 0.00 0.00 0.00 0.00 0.00 0.00 0.00 0.00 0.00 0.00 0.00 0.00 0.00 0.00 0.00 0.00 0.00 0.00 0.00 0.01 0.03 0.07 0.08 0.09 0.05 0.04 0.05 0.05 0.04 0.03 0.02 0.03 0.02 0.01 0.01 0.04 0.15 0.20 0.24 0.28 0.19 0.11
0.00 0.00 0.00 0.00 0.00 0.00 0.00 0.00 0.00 0.00 0.00 0.00 0.00 0.00 0.00 0.00 0.00 0.01 0.01 0.01 0.02 0.05 0.08 0.09 0.09 0.07 0.06 0.05 0.04 0.04 0.04 0.03 0.03 0.02 0.01 0.03 0.11 0.21 0.22 0.23 0.29 0.22 0.14
0.00 0.00 0.00 0.00 0.00 0.00 0.00 0.00 0.00 0.00 0.00 0.00 0.00 0.00 0.00 0.00 0.00 0.01 0.02 0.03 0.05 0.10 0.13 0.12 0.11 0.09 0.08 0.06 0.04 0.04 0.04 0.04 0.03 0.01 0.02 0.05 0.11 0.14 0.19 0.23 0.24 0.26 0.21
0.00 0.00 0.00 0.00 0.00 0.00 0.00 0.00 0.00 0.00 0.00 0.00 0.00 0.00 0.00 0.00 0.01 0.02 0.03 0.06 0.10 0.15 0.16 0.15 0.11 0.07 0.04 0.04 0.05 0.06 0.05 0.03 0.02 0.01 0.02 0.05 0.09 0.10 0.17 0.26 0.24 0.20 0.19
MSLP
1017.33 1017.39 1017.40 1017.40 1017.43 1017.49 1017.58 1017.71 1017.84 1017.95 1018.01 1018.00 1017.94 1017.83 1017.70 1017.57 1017.45 1017.36 1017.30 1017.27 1017.23 1017.19 1017.12 1017.04 1016.93 1016.81 1016.68 1016.57 1016.46 1016.38 1016.31 1016.26 1016.25 1016.26 1016.31 1016.40 1016.52 1016.66 1016.81 1016.94 1017.04 1017.09 1017.10
1017.48 1017.53 1017.55 1017.56 1017.60 1017.66 1017.75 1017.86 1017.97 1018.05 1018.08 1018.07 1018.00 1017.90 1017.78 1017.67 1017.58 1017.51 1017.47 1017.45 1017.42 1017.37 1017.30 1017.19 1017.05 1016.88 1016.70 1016.51 1016.32 1016.14 1015.99 1015.86 1015.78 1015.75 1015.78 1015.86 1016.00 1016.16 1016.35 1016.52 1016.66 1016.76 1016.80
1017.68 1017.73 1017.77 1017.80 1017.84 1017.91 1017.98 1018.06 1018.13 1018.17 1018.16 1018.12 1018.04 1017.94 1017.84 1017.76 1017.69 1017.66 1017.64 1017.62 1017.59 1017.53 1017.43 1017.29 1017.11 1016.89 1016.64 1016.37 1016.10 1015.83 1015.58 1015.37 1015.22 1015.14 1015.13 1015.20 1015.34 1015.54 1015.76 1015.99 1016.20 1016.37 1016.49
1017.94 1018.00 1018.05 1018.11 1018.16 1018.23 1018.28 1018.32 1018.34 1018.32 1018.26 1018.17 1018.07 1017.97 1017.89 1017.82 1017.78 1017.76 1017.75 1017.73 1017.68 1017.60 1017.47 1017.29 1017.06 1016.79 1016.48 1016.16 1015.81 1015.47 1015.15 1014.87 1014.65 1014.50 1014.45 1014.50 1014.63 1014.84 1015.10 1015.38 1015.67 1015.92 1016.14
1018.25 1018.32 1018.40 1018.47 1018.54 1018.60 1018.64 1018.63 1018.59 1018.50 1018.39 1018.26 1018.13 1018.02 1017.94 1017.88 1017.85 1017.83 1017.81 1017.76 1017.68 1017.55 1017.38 1017.16 1016.89 1016.58 1016.24 1015.88 1015.50 1015.11 1014.74 1014.41 1014.13 1013.93 1013.83 1013.83 1013.93 1014.13 1014.41 1014.73 1015.07 1015.41 1015.72
1018.59 1018.67 1018.77 1018.86 1018.95 1019.00 1019.01 1018.97 1018.87 1018.73 1018.56 1018.39 1018.24 1018.11 1018.02 1017.96 1017.92 1017.88 1017.81 1017.72 1017.58 1017.39 1017.16 1016.90 1016.60 1016.28 1015.93 1015.57 1015.20 1014.81 1014.42 1014.06 1013.73 1013.48 1013.32 1013.26 1013.31 1013.47 1013.72 1014.05 1014.42 1014.80 1015.18
1018.94 1019.02 1019.13 1019.24 1019.33 1019.39 1019.38 1019.31 1019.18 1019.00 1018.79 1018.59 1018.42 1018.28 1018.17 1018.09 1018.02 1017.92 1017.79 1017.62 1017.40 1017.14 1016.85 1016.54 1016.23 1015.91 1015.60 1015.27 1014.93 1014.57 1014.21 1013.84 1013.49 1013.19 1012.96 1012.82 1012.79 1012.88 1013.07 1013.35 1013.71 1014.10 1014.51
1019.28 1019.36 1019.46 1019.58 1019.68 1019.73 1019.72 1019.64 1019.49 1019.29 1019.08 1018.87 1018.69 1018.54 1018.41 1018.30 1018.16 1018.00 1017.78 1017.51 1017.19 1016.84 1016.48 1016.13 1015.81 1015.51 1015.24 1014.97 1014.70 1014.40 1014.07 1013.72 1013.36 1013.01 1012.71 1012.49 1012.36 1012.34 1012.44 1012.64 1012.93 1013.29 1013.70
1019.60 1019.65 1019.75 1019.86 1019.96 1020.02 1020.01 1019.93 1019.79 1019.60 1019.40 1019.21 1019.03 1018.88 1018.73 1018.57 1018.37 1018.12 1017.79 1017.40 1016.97 1016.53 1016.09 1015.70 1015.37 1015.10 1014.88 1014.68 1014.47 1014.23 1013.95 1013.62 1013.25 1012.87 1012.51 1012.20 1011.97 1011.84 1011.83 1011.92 1012.12 1012.41 1012.77
1019.88 1019.91 1019.98 1020.08 1020.17 1020.23 1020.23 1020.17 1020.05 1019.90 1019.73 1019.56 1019.41 1019.26 1019.09 1018.89 1018.62 1018.26 1017.83 1017.32 1016.77 1016.23 1015.72 1015.29 1014.94 1014.69 1014.50 1014.34 1014.19 1014.00 1013.76 1013.45 1013.08 1012.67 1012.27 1011.89 1011.57 1011.34 1011.22 1011.21 1011.32 1011.52 1011.81
1020.12 1020.11 1020.15 1020.22 1020.30 1020.36 1020.36 1020.33 1020.24 1020.13 1020.01 1019.88 1019.75 1019.61 1019.43 1019.18 1018.84 1018.40 1017.86 1017.24 1016.59 1015.96 1015.38 1014.89 1014.52 1014.25 1014.07 1013.94 1013.80 1013.64 1013.41 1013.12 1012.75 1012.33 1011.90 1011.49 1011.12 1010.84 1010.64 1010.56 1010.58 1010.70 1010.92
1020.32 1020.26 1020.26 1020.30 1020.35 1020.40 1020.41 1020.39 1020.34 1020.27 1020.19 1020.11 1020.01 1019.87 1019.68 1019.39 1018.99 1018.47 1017.84 1017.14 1016.41 1015.69 1015.05 1014.51 1014.09 1013.80 1013.59 1013.44 1013.29 1013.12 1012.89 1012.59 1012.23 1011.82 1011.40 1010.99 1010.63 1010.33 1010.12 1010.00 1009.97 1010.04 1010.20
1020.44 1020.35 1020.31 1020.31 1020.33 1020.35 1020.36 1020.35 1020.32 1020.28 1020.24 1020.19 1020.11 1019.98 1019.77 1019.45 1019.01 1018.44 1017.75 1016.99 1016.19 1015.43 1014.73 1014.14 1013.67 1013.32 1013.05 1012.84 1012.65 1012.44 1012.19 1011.88 1011.53 1011.16 1010.78 1010.42 1010.11 1009.85 1009.67 1009.56 1009.53 1009.59 1009.71
1020.48 1020.36 1020.29 1020.25 1020.23 1020.22 1020.21 1020.20 1020.18 1020.16 1020.14 1020.10 1020.03 1019.89 1019.67 1019.33 1018.86 1018.26 1017.54 1016.75 1015.93 1015.13 1014.40 1013.76 1013.23 1012.81 1012.48 1012.19 1011.93 1011.67 1011.38 1011.07 1010.75 1010.42 1010.11 1009.84 1009.61 1009.44 1009.33 1009.27 1009.26 1009.32 1009.44
1020.44 1020.29 1020.19 1020.12 1020.06 1020.02 1019.99 1019.97 1019.94 1019.92 1019.89 1019.85 1019.77 1019.62 1019.38 1019.02 1018.54 1017.92 1017.20 1016.41 1015.59 1014.79 1014.04 1013.36 1012.79 1012.30 1011.89 1011.53 1011.19 1010.87 1010.56 1010.25 1009.96 1009.70 1009.49 1009.31 1009.19 1009.11 1009.07 1009.07 1009.10 1009.16 1009.28
1020.30 1020.14 1020.02 1019.92 1019.85 1019.78 1019.73 1019.68 1019.63 1019.59 1019.54 1019.47 1019.36 1019.19 1018.92 1018.55 1018.06 1017.45 1016.74 1015.97 1015.17 1014.38 1013.63 1012.94 1012.33 1011.79 1011.31 1010.88 1010.48 1010.13 1009.80 1009.52 1009.28 1009.09 1008.96 1008.88 1008.84 1008.84 1008.85 1008.87 1008.91 1008.97 1009.07
1020.07 1019.92 1019.80 1019.69 1019.60 1019.52 1019.44 1019.37 1019.30 1019.22 1019.13 1019.02 1018.87 1018.66 1018.36 1017.96 1017.46 1016.86 1016.17 1015.43 1014.66 1013.90 1013.16 1012.47 1011.83 1011.26 1010.73 1010.27 1009.85 1009.49 1009.18 1008.93 1008.75 1008.64 1008.58 1008.56 1008.56 1008.57 1008.57 1008.57 1008.56 1008.57 1008.63
1019.78 1019.65 1019.54 1019.45 1019.36 1019.27 1019.18 1019.08 1018.97 1018.86 1018.72 1018.56 1018.35 1018.08 1017.73 1017.31 1016.79 1016.19 1015.52 1014.80 1014.06 1013.32 1012.60 1011.92 1011.28 1010.69 1010.16 1009.69 1009.28 1008.95 1008.69 1008.50 1008.39 1008.33 1008.31 1008.30 1008.28 1008.24 1008.16 1008.04 1007.92 1007.83 1007.80
1019.47 1019.37 1019.28 1019.21 1019.13 1019.05 1018.95 1018.83 1018.69 1018.53 1018.33 1018.10 1017.82 1017.49 1017.09 1016.61 1016.07 1015.46 1014.79 1014.09 1013.37 1012.65 1011.94 1011.27 1010.64 1010.07 1009.56 1009.12 1008.76 1008.49 1008.30 1008.19 1008.14 1008.13 1008.11 1008.07 1007.97 1007.80 1007.55 1007.26 1006.96 1006.70 1006.54
1019.18 1019.11 1019.06 1019.01 1018.95 1018.87 1018.77 1018.63 1018.46 1018.24 1017.98 1017.67 1017.32 1016.90 1016.43 1015.90 1015.32 1014.68 1014.00 1013.30 1012.58 1011.88 1011.18 1010.53 1009.92 1009.38 1008.91 1008.54 1008.25 1008.07 1007.97 1007.95 1007.96 1007.97 1007.94 1007.82 1007.59 1007.23 1006.77 1006.24 1005.70 1005.23 1004.91
1018.94 1018.90 1018.88 1018.86 1018.82 1018.75 1018.63 1018.47 1018.25 1017.97 1017.64 1017.25 1016.81 1016.31 1015.77 1015.17 1014.53 1013.85 1013.16 1012.44 1011.72 1011.02 1010.35 1009.71 1009.13 1008.64 1008.23 1007.93 1007.74 1007.66 1007.66 1007.72 1007.80 1007.82 1007.75 1007.54 1007.15 1006.59 1005.89 1005.10 1004.31 1003.62 1003.12
1018.80 1018.78 1018.78 1018.77 1018.73 1018.65 1018.52 1018.32 1018.04 1017.70 1017.29 1016.81 1016.28 1015.69 1015.06 1014.39 1013.70 1012.99 1012.27 1011.54 1010.83 1010.13 1009.48 1008.87 1008.34 1007.89 1007.56 1007.34 1007.24 1007.26 1007.36 1007.51 1007.63 1007.67 1007.56 1007.26 1006.73 1005.98 1005.06 1004.04 1003.02 1002.13 1001.46
1018.77 1018.76 1018.76 1018.75 1018.70 1018.59 1018.42 1018.16 1017.82 1017.40 1016.89 1016.32 1015.69 1015.01 1014.30 1013.57 1012.84 1012.09 1011.36 1010.64 1009.94 1009.28 1008.66 1008.09 1007.61 1007.23 1006.96 1006.83 1006.82 1006.92 1007.11 1007.32 1007.49 1007.54 1007.41 1007.04 1006.41 1005.53 1004.46 1003.27 1002.09 1001.04 1000.25
1018.86 1018.85 1018.83 1018.79 1018.70 1018.55 1018.31 1017.98 1017.56 1017.04 1016.44 1015.77 1015.04 1014.28 1013.50 1012.72 1011.95 1011.20 1010.48 1009.79 1009.14 1008.53 1007.97 1007.48 1007.06 1006.75 1006.56 1006.49 1006.55 1006.71 1006.95 1007.21 1007.41 1007.48 1007.35 1006.96 1006.30 1005.37 1004.24 1002.98 1001.73 1000.62 999.77
1019.09 1019.04 1018.98 1018.89 1018.74 1018.51 1018.20 1017.78 1017.26 1016.64 1015.93 1015.16 1014.34 1013.51 1012.67 1011.85 1011.07 1010.35 1009.67 1009.05 1008.48 1007.97 1007.50 1007.11 1006.78 1006.55 1006.42 1006.40 1006.50 1006.70 1006.97 1007.24 1007.46 1007.55 1007.45 1007.09 1006.47 1005.58 1004.49 1003.28 1002.06 1000.98 1000.15
1019.40 1019.30 1019.18 1019.02 1018.79 1018.48 1018.07 1017.56 1016.94 1016.22 1015.41 1014.55 1013.65 1012.74 1011.86 1011.03 1010.27 1009.59 1009.00 1008.48 1008.03 1007.64 1007.31 1007.04 1006.82 1006.67 1006.60 1006.62 1006.74 1006.94 1007.19 1007.46 1007.68 1007.79 1007.72 1007.44 1006.91 1006.15 1005.20 1004.13 1003.07 1002.11 1001.37
Thickness
5693 5689 5686 5683 5681 5678 5676 5674 5671 5669 5667 5665 5663 5661 5659 5657 5656 5655 5654 5653 5652 5652 5652 5651 5651 5652 5652 5653 5654 5655 5655 5655 5656 5657 5657 5657 5658 5658 5660 5661 5662 5664 5667
5687 5684 5681 5678 5675 5673 5670 5668 5665 5662 5659 5657 5654 5652 5649 5646 5644 5643 5642 5641 5640 5640 5639 5639 5639 5640 5641 5643 5645 5646 5647 5648 5648 5649 5649 5650 5650 5651 5652 5653 5655 5656 5659
5682 5678 5675 5671 5668 5666 5664 5661 5658 5655 5651 5648 5644 5642 5639 5636 5633 5631 5629 5628 5627 5626 5626 5626 5626 5626 5628 5631 5633 5636 5638 5640 5641 5641 5642 5642 5642 5643 5644 5645 5646 5648 5650
5675 5672 5668 5664 5661 5658 5655 5652 5648 5645 5641 5637 5634 5631 5628 5624 5621 5619 5616 5614 5613 5612 5611 5611 5612 5612 5614 5616 5619 5622 5626 5629 5631 5632 5633 5634 5634 5635 5636 5636 5637 5639 5641
5666 5663 5658 5654 5651 5648 5644 5641 5636 5632 5627 5624 5622 5619 5615 5612 5609 5606 5602 5600 5598 5597 5596 5597 5597 5598 5599 5600 5603 5606 5609 5613 5617 5620 5622 5624 5626 5626 5627 5627 5628 5629 5630
5654 5650 5646 5641 5638 5633 5628 5624 5620 5616 5611 5608 5607 5605 5601 5598 5594 5591 5587 5584 5582 5581 5580 5581 5581 5582 5582 5583 5585 5588 5591 5595 5599 5604 5607 5611 5614 5615 5616 5617 5618 5619 5620
5642 5637 5632 5627 5622 5617 5612 5608 5603 5599 5594 5591 5589 5588 5587 5583 5579 5575 5572 5568 5566 5564 5563 5563 5563 5564 5564 5565 5567 5568 5571 5575 5579 5584 5589 5594 5599 5602 5604 5605 5606 5608 5609
5629 5624 5619 5613 5608 5602 5597 5592 5587 5582 5578 5573 5569 5567 5567 5567 5563 5561 5556 5553 5550 5548 5546 5545 5545 5546 5546 5547 5548 5549 5551 5555 5558 5562 5568 5574 5580 5586 5589 5592 5594 5596 5598
5616 5610 5605 5599 5593 5588 5582 5577 5571 5566 5561 5556 5552 5548 5546 5546 5544 5545 5543 5540 5536 5533 5531 5530 5530 5531 5530 5531 5532 5532 5533 5535 5539 5542 5547 5553 5560 5567 5573 5577 5581 5584 5586
5603 5597 5591 5585 5579 5573 5568 5562 5556 5551 5546 5541 5537 5533 5529 5527 5525 5529 5530 5527 5524 5522 5520 5519 5518 5518 5518 5518 5519 5519 5520 5521 5523 5526 5529 5535 5542 5549 5556 5562 5567 5571 5575
5590 5584 5577 5571 5565 5559 5553 5547 5542 5536 5532 5527 5523 5520 5517 5514 5511 5509 5515 5516 5514 5511 5509 5507 5507 5507 5507 5507 5508 5508 5509 5511 5512 5514 5516 5521 5527 5533 5540 5547 5553 5559 5564
5576 5570 5563 5556 5550 5544 5538 5533 5528 5524 5519 5514 5510 5506 5503 5501 5500 5496 5499 5502 5502 5502 5498 5496 5495 5496 5497 5497 5498 5499 5500 5501 5502 5504 5507 5511 5515 5521 5527 5534 5540 5546 5551
5562 5556 5549 5543 5537 5532 5526 5521 5516 5512 5507 5503 5499 5495 5491 5488 5485 5483 5483 5487 5488 5491 5488 5487 5485 5485 5486 5487 5488 5488 5489 5490 5492 5494 5498 5501 5506 5511 5516 5522 5528 5534 5539
5551 5545 5538 5532 5526 5520 5515 5510 5506 5501 5497 5492 5488 5483 5479 5476 5472 5468 5466 5467 5471 5477 5477 5477 5475 5474 5475 5476 5478 5478 5480 5481 5483 5486 5490 5493 5497 5502 5506 5512 5516 5521 5526
5541 5535 5527 5521 5515 5510 5505 5500 5495 5490 5485 5480 5475 5471 5467 5463 5459 5455 5451 5448 5449 5457 5466 5466 5464 5465 5464 5466 5468 5470 5472 5474 5476 5479 5483 5486 5490 5493 5497 5501 5505 5509 5512
5530 5522 5516 5510 5505 5499 5494 5489 5484 5479 5473 5468 5463 5458 5454 5450 5446 5442 5439 5436 5434 5437 5447 5455 5454 5455 5455 5457 5460 5463 5466 5468 5471 5474 5477 5481 5484 5487 5489 5492 5495 5498 5500
5518 5511 5505 5499 5494 5489 5483 5478 5472 5467 5461 5455 5450 5445 5441 5437 5434 5431 5428 5427 5426 5427 5434 5444 5444 5445 5446 5449 5454 5457 5460 5463 5466 5469 5472 5475 5477 5479 5481 5483 5485 5487 5490
5507 5501 5495 5489 5484 5479 5473 5466 5460 5454 5448 5442 5437 5432 5428 5425 5422 5420 5419 5419 5419 5420 5424 5432 5436 5437 5440 5444 5449 5453 5457 5460 5462 5464 5466 5467 5469 5471 5472 5474 5476 5478 5481
5496 5490 5484 5479 5474 5469 5462 5455 5448 5441 5435 5429 5424 5420 5417 5414 5413 5411 5411 5412 5413 5415 5416 5420 5427 5431 5435 5440 5445 5450 5453 5455 5457 5458 5459 5460 5462 5464 5465 5467 5470 5473 5476
5486 5481 5475 5470 5464 5458 5451 5444 5436 5429 5423 5417 5412 5408 5407 5405 5405 5405 5406 5408 5409 5410 5412 5415 5421 5428 5433 5439 5443 5447 5450 5450 5451 5452 5453 5454 5456 5458 5460 5463 5467 5471 5476
5478 5472 5466 5460 5453 5446 5439 5431 5424 5417 5411 5407 5403 5400 5399 5399 5401 5402 5404 5405 5405 5407 5410 5414 5420 5427 5434 5439 5443 5446 5448 5447 5446 5446 5447 5450 5451 5454 5456 5460 5465 5472 5478
5468 5462 5456 5449 5441 5434 5426 5418 5412 5406 5401 5397 5396 5395 5394 5395 5397 5398 5399 5401 5403 5406 5411 5415 5421 5428 5436 5440 5443 5445 5445 5444 5445 5442 5443 5446 5447 5449 5452 5456 5464 5474 5484
5459 5452 5444 5437 5428 5420 5413 5406 5400 5395 5391 5389 5389 5389 5390 5392 5393 5394 5397 5400 5404 5408 5413 5418 5426 5433 5438 5442 5444 5445 5445 5444 5442 5439 5439 5442 5444 5446 5449 5454 5463 5477 5490
5448 5440 5432 5424 5415 5408 5401 5395 5391 5387 5385 5385 5385 5385 5386 5389 5391 5393 5396 5401 5408 5414 5420 5426 5433 5438 5441 5443 5445 5445 5442 5439 5437 5436 5436 5438 5440 5441 5446 5451 5460 5474 5489
5434 5426 5418 5411 5403 5397 5391 5387 5383 5381 5381 5382 5384 5385 5387 5389 5392 5394 5398 5405 5412 5419 5424 5430 5436 5439 5441 5442 5442 5441 5439 5439 5438 5436 5435 5435 5437 5437 5440 5445 5454 5465 5477
5420 5413 5406 5399 5392 5387 5383 5380 5377 5376 5377 5379 5382 5385 5388 5390 5394 5397 5402 5409 5416 5422 5426 5430 5433 5436 5436 5437 5437 5438 5438 5438 5438 5437 5435 5435 5436 5436 5437 5438 5444 5452 5461